Iris Victoria — V7TS8 — position and weather

sailwx.info

Track history (hours):
 
Tides and Currents Weather Stations Pressure Air Temp Water Temp Dewpoint Dewpoint Depression Visibility Wind Speed Wind Dir Waves Ship Positions

Iris Victoria

Last reported at 2016-Jun-30 10:25 UTC. Time now 2016-Jul-01 11:47 UTC.
Position N 49°09' W 005°56'.

Length 228 m; draft 13.1 m.

Type: Tanker. MMSI: 538003876.

Date/timePositionNaut miles runAvg speedWind from/ knotsBaromVisibWave heightAir tempDewpointWater temp
2016-Jun-30 10:25N 49°09' W 005°56'1211.6
2016-Jun-30 09:24N 49°14' W 005°39'910.9
2016-Jun-30 08:32N 49°19' W 005°27'5713.0
2016-Jun-30 04:11N 49°42' W 004°08'812.3
2016-Jun-30 03:33N 49°45' W 003°57'1311.7
2016-Jun-30 02:26N 49°51' W 003°39'1011.3
2016-Jun-30 01:34N 49°54' W 003°24'1111.5
2016-Jun-30 00:33N 49°57' W 003°07'1212.1
2016-Jun-29 23:33N 50°01' W 002°49'9413.4
2016-Jun-29 16:33N 50°25' W 000°27'1211.0
2016-Jun-29 15:30N 50°28' W 000°09'1010.9
2016-Jun-29 14:33N 50°31' E 000°06'1211.5
2016-Jun-29 13:32N 50°34' E 000°24'2712.8
2016-Jun-29 11:26N 50°47' E 001°01'1213.1
2016-Jun-29 10:33N 50°53' E 001°17'1212.5
2016-Jun-29 09:33N 51°03' E 001°30'1111.0
2016-Jun-29 08:34N 51°11' E 001°42'1110.9
2016-Jun-29 07:33N 51°20' E 001°51'1111.4
2016-Jun-29 06:33N 51°30' E 001°60'11412.5
2016-Jun-28 21:28N 53°20' E 002°47'1111.6
2016-Jun-28 20:33N 53°30' E 002°53'1312.4
2016-Jun-28 19:33N 53°42' E 003°01'1313.3
2016-Jun-28 18:33N 53°53' E 003°12'  
2016-Jun-22 15:23N 60°53' E 003°60'1 1.4
2016-Jun-22 14:34N 60°52' E 004°01'1 1.2
2016-Jun-22 13:33N 60°52' E 004°03'1 1.3
2016-Jun-22 12:33N 60°51' E 004°05'1 1.4
2016-Jun-22 11:33N 60°50' E 004°07'2 1.5
2016-Jun-22 10:29N 60°49' E 004°10'  
Track history (hours):
 
Tides and Currents Weather Stations Pressure Air Temp Water Temp Dewpoint Dewpoint Depression Visibility Wind Speed Wind Dir Waves Ship Positions

Iris Victoria

Last reported at 2016-Jun-30 10:25 UTC. Time now 2016-Jul-01 11:47 UTC.
Position N 49°09' W 005°56'.

Length 228 m; draft 13.1 m.

Type: Tanker. MMSI: 538003876.

Date/timePositionNaut miles runAvg speedWind from/ knotsBaromVisibWave heightAir tempDewpointWater temp
2016-Jun-30 10:25N 49°09' W 005°56'1211.6
2016-Jun-30 09:24N 49°14' W 005°39'910.9
2016-Jun-30 08:32N 49°19' W 005°27'5713.0
2016-Jun-30 04:11N 49°42' W 004°08'812.3
2016-Jun-30 03:33N 49°45' W 003°57'1311.7
2016-Jun-30 02:26N 49°51' W 003°39'1011.3
2016-Jun-30 01:34N 49°54' W 003°24'1111.5
2016-Jun-30 00:33N 49°57' W 003°07'1212.1
2016-Jun-29 23:33N 50°01' W 002°49'9413.4
2016-Jun-29 16:33N 50°25' W 000°27'1211.0
2016-Jun-29 15:30N 50°28' W 000°09'1010.9
2016-Jun-29 14:33N 50°31' E 000°06'1211.5
2016-Jun-29 13:32N 50°34' E 000°24'2712.8
2016-Jun-29 11:26N 50°47' E 001°01'1213.1
2016-Jun-29 10:33N 50°53' E 001°17'1212.5
2016-Jun-29 09:33N 51°03' E 001°30'1111.0
2016-Jun-29 08:34N 51°11' E 001°42'1110.9
2016-Jun-29 07:33N 51°20' E 001°51'1111.4
2016-Jun-29 06:33N 51°30' E 001°60'11412.5
2016-Jun-28 21:28N 53°20' E 002°47'1111.6
2016-Jun-28 20:33N 53°30' E 002°53'1312.4
2016-Jun-28 19:33N 53°42' E 003°01'1313.3
2016-Jun-28 18:33N 53°53' E 003°12'  
2016-Jun-22 15:23N 60°53' E 003°60'1 1.4
2016-Jun-22 14:34N 60°52' E 004°01'1 1.2
2016-Jun-22 13:33N 60°52' E 004°03'1 1.3
2016-Jun-22 12:33N 60°51' E 004°05'1 1.4
2016-Jun-22 11:33N 60°50' E 004°07'2 1.5
2016-Jun-22 10:29N 60°49' E 004°10'  

Dump ship's entire track history